Location: Greene
(44.1583°N, 70.1456°W)
Time: 05:05:37
(UTC-04:00)

Envisat - Visible Passes

Search period start: 16 July 2018 00:00
Search period end: 26 July 2018 00:00
Orbit: 764 x 766 km, 98.2° (Epoch: 15 July)

Date Brightness Start Highest point End Pass type
(mag) Time Alt. Az. Time Alt. Az. Time Alt. Az.
17 Jul 5.8 21:22:46 10° WSW 21:25:04 13° W 21:27:22 10° WNW visible
20 Jul 5.6 21:10:36 10° SW 21:13:46 17° W 21:16:57 10° NW visible
23 Jul 5.5 20:58:43 10° SW 21:02:28 21° W 21:06:16 10° NW visible
25 Jul 5.9 21:26:35 10° WSW 21:28:22 12° W 21:30:09 10° WNW visible
